Content
SEND FEEDBACK

Daily
Averages
Monthly
Summary
United Kingdom

STORNOWAY, SCOTLAND


Home > Europe > United Kingdom > Scotland
Elevation: 43 feet     Latitude: 58 13N     Longitude: 006 19W

WEATHER
 
SELECT A DAY
Number of Records: 242,005;   Date Range: 7/1/96 - 9/29/14
 
SHARE

PRINT THIS DATA

[ ← Previous Day ]
WEATHER ALMANAC - APRIL 21, 2013
[ Next Day → ]
[ °C ]   °F
Weather ElementAverageHighLow
Temperature44.5 °F48.2 °F (11:20 am)41 °F (1:20 am)
Dewpoint39.2 °F42.8 °F (11:20 am)35.6 °F (6:50 am)
Humidity81 %94 % (12:50 am)54 % (6:50 pm)
Barometer29.76 in29.90 in (12:50 am)29.65 in (10:50 pm)
Wind Speed15.2 mph26.5 mph (11:50 am)
Wind Gust35.7 mph (2:50 pm)
Weather ElementAverage
Visibility8.1 mi
Wind DirectionSSW (212.7 °)

Weather ElementTotal
Precipitation---
Heating Degree Days20.4 (Base 65)
Averaged from 55 records on April 21, 2013
WEATHER CONDITIONS BREAKOUT
WIND DIRECTION BREAKOUT
WEATHER BY HOUR - APRIL 21, 2013
[ °C ]   °F
Local TimeTemperatureDewpointHumidityBarometerVisibilityWind DirectionWind SpeedGust SpeedPrecipitationEventsConditions
12:50 AM42.0 °F41.0 °F94 %29.90 in6.0 miSSW (210°)8.1 mphRainLight Rain
12:50 AM42.8 °F37.4 °F81 %29.89 in6.2 miSSW (210°)6.9 mphRainLight Rain
1:20 AM41.0 °F37.4 °F87 %29.89 in6.2 miWSW (250°)8.1 mph
1:50 AM41.0 °F37.4 °F87 %29.89 in6.2 miSW (220°)5.8 mphLight Drizzle
2:20 AM41.0 °F37.4 °F87 %29.86 in6.2 miSouth (190°)10.4 mphRainLight Rain
2:50 AM42.8 °F37.4 °F81 %29.86 in6.2 miSouth (190°)12.7 mphScattered Clouds
3:20 AM42.8 °F37.4 °F81 %29.86 in6.2 miSSW (200°)11.5 mphLight Drizzle
3:50 AM43.0 °F40.0 °F85 %29.84 in15.0 miSouth (190°)15.0 mphRainLight Rain
3:50 AM42.8 °F37.4 °F81 %29.83 in6.2 miSouth (190°)16.1 mphLight Drizzle
4:20 AM42.8 °F37.4 °F81 %29.83 in6.2 miSouth (190°)16.1 mphScattered Clouds
4:50 AM41.0 °F37.4 °F87 %29.83 in6.2 miSouth (190°)15.0 mphPartly Cloudy
5:20 AM42.8 °F37.4 °F81 %29.83 in6.2 miSSW (200°)16.1 mphLight Drizzle
5:50 AM42.8 °F37.4 °F81 %29.80 in6.2 miSSW (200°)13.8 mphScattered Clouds
6:20 AM41.0 °F37.4 °F87 %29.80 in6.2 miSSW (210°)10.4 mphScattered Clouds
6:50 AM41.0 °F38.0 °F85 %29.81 in31.0 miSSW (210°)11.5 mphRainRain
6:50 AM41.0 °F35.6 °F81 %29.80 in6.2 miSSW (210°)10.4 mphPartly Cloudy
7:20 AM41.0 °F37.4 °F87 %29.80 in6.2 miSSW (200°)12.7 mphPartly Cloudy
7:50 AM42.8 °F37.4 °F81 %29.80 in6.2 miSSW (210°)15.0 mphScattered Clouds
8:20 AM42.8 °F39.2 °F87 %29.80 in6.2 miSSW (200°)10.4 mph
8:50 AM44.6 °F39.2 °F81 %29.80 in6.2 miSSW (200°)11.5 mphPartly Cloudy
9:20 AM44.6 °F39.2 °F81 %29.80 in6.2 miSSW (200°)13.8 mphScattered Clouds
9:50 AM47.0 °F42.0 °F77 %29.78 in12.0 miSSW (200°)15.0 mphScattered Clouds
9:50 AM46.4 °F41.0 °F81 %29.77 in6.2 miSSW (200°)13.8 mphScattered Clouds
10:20 AM44.6 °F39.2 °F81 %29.77 in6.2 miSSW (210°)16.1 mphRainRain Showers
10:50 AM46.4 °F41.0 °F81 %29.77 in6.2 miSouth (190°)18.4 mphScattered Clouds
11:20 AM48.2 °F42.8 °F82 %29.74 in6.2 miSSW (200°)20.7 mphScattered Clouds
11:50 AM46.4 °F41.0 °F81 %29.74 in6.2 miSSW (200°)26.5 mphScattered Clouds
12:20 PM48.2 °F42.8 °F82 %29.74 in6.2 miSSW (200°)25.3 mphScattered Clouds
12:50 PM47.0 °F40.0 °F68 %29.73 in25.0 miWSW (250°)17.3 mphPartly Cloudy
12:50 PM48.2 °F42.8 °F82 %29.74 in6.2 miWSW (250°)18.4 mphScattered Clouds
1:20 PM48.2 °F42.8 °F82 %29.74 in6.2 miSW (230°)15.0 mphRainLight Rain Showers
1:50 PM48.2 °F42.8 °F82 %29.71 in6.2 miSSW (210°)17.3 mphScattered Clouds
2:20 PM48.2 °F42.8 °F82 %29.71 in6.2 miSW (230°)20.7 mphPartly Cloudy
2:50 PM48.2 °F42.8 °F82 %29.71 in6.2 miSW (230°)23.0 mph35.7 mphScattered Clouds
3:20 PM48.2 °F42.8 °F82 %29.71 in6.2 miWSW (240°)21.9 mphScattered Clouds
3:50 PM47.0 °F38.0 °F63 %29.72 in22.0 miSW (220°)23.0 mphRainRain
3:50 PM48.2 °F42.8 °F82 %29.71 in6.2 miSSW (210°)19.6 mphPartly Cloudy
4:20 PM48.2 °F42.8 °F82 %29.71 in6.2 miWSW (240°)21.9 mphPartly Cloudy
4:50 PM48.2 °F42.8 °F82 %29.71 in6.2 miWSW (250°)21.9 mph34.5 mphScattered Clouds
5:20 PM48.2 °F42.8 °F82 %29.71 in6.2 miSW (220°)13.8 mphPartly Cloudy
5:50 PM48.2 °F42.8 °F82 %29.71 in6.2 miSW (220°)12.7 mphPartly Cloudy
6:20 PM48.2 °F42.8 °F82 %29.71 in6.2 miSW (230°)16.1 mphPartly Cloudy
6:50 PM47.0 °F36.0 °F54 %29.70 in25.0 miSW (230°)18.4 mphScattered Clouds
6:50 PM46.4 °F35.6 °F66 %29.71 in6.2 miSW (220°)16.1 mphPartly Cloudy
7:20 PM44.6 °F37.4 °F76 %29.71 in6.2 miSW (230°)15.0 mph27.6 mphRainLight Rain
7:50 PM42.8 °F37.4 °F81 %29.71 in6.2 miSW (220°)9.2 mphPartly Cloudy
8:20 PM42.8 °F37.4 °F81 %29.68 in6.2 miSSW (210°)11.5 mph
8:50 PM42.8 °F37.4 °F81 %29.68 in6.2 miSSW (200°)12.7 mphScattered Clouds
9:20 PM42.8 °F37.4 °F81 %29.68 in6.2 miSSW (210°)13.8 mphRainLight Rain
9:50 PM42.0 °F39.0 °F87 %29.68 in19.0 miSSW (210°)17.3 mphRainRain
9:50 PM42.8 °F37.4 °F81 %29.68 in6.2 miSSW (210°)15.0 mphMostly Cloudy
10:20 PM41.0 °F35.6 °F81 %29.68 in6.2 miSSW (210°)16.1 mphScattered Clouds
10:50 PM41.0 °F35.6 °F81 %29.65 in6.2 miSSW (210°)15.0 mph
11:20 PM41.0 °F35.6 °F81 %29.65 in6.2 miSW (220°)11.5 mphPartly Cloudy
11:50 PM41.0 °F35.6 °F81 %29.65 in6.2 miSW (220°)13.8 mphPartly Cloudy
Hourly data recorded from EGPO, located miles away from Stornoway, Scotland







STORIES FROM OUR PARTNERS